www.pogodaiklimat.ru

Погода и климат >> Архив погоды >> Мадагаскар >> Тулиара


ПОГОДА в Тулиаре

  • Прогноз погоды в Тулиаре
  • Монитор погоды в Тулиаре

АРХИВ ПОГОДЫ в Тулиаре

Время (UTC), дата Ветер
(напр.,м/с)
 
Видим.   Явления Облачность Т
(С)
Тd
(С)
f
(%)
Тe
(С)
Тes
(С)
Комфортность P
(гПа)
Po
(гПа)
Тmin
(С)
Tmax
(С)
R
(мм)
R24
(мм)
S
(см)
09 20.05 З 3 40 км 8/4 600 м
[Cu Sc Ac trans Ci sp]
+27.8 +19.2 60 +33 +37 очень
душно
1015.0 1014.1
12 20.05 З 3 35 км гроза без осадков 8/6 600 м
[Cb cap Ac trans Ci ing]
+25.9 +21.4 76 +33 +34 очень
душно
1013.1 1012.2
15 20.05 ЮЗ 4 35 км зарница 9/8 600 м
[Cb cap Ac trans Ci ing]
+24.8 +21.2 80 +31 +31 очень
душно
1013.0 1012.1
00 21.05 В 1 35 км 6/6 600 м
[Cb cap Ci ing]
+21.9 +20.2 90 +28 +28 душно 1013.3 1012.4
03 21.05 СВ 2 35 км зарница 6/4 600 м
[Cb cap Ac trans Ci ing]
+20.5 +18.2 87 +25 +25 комфорт 1014.3 1013.4
06 21.05 СВ 3 40 км 3/1 600 м
[Cb cap Ci ing]
+26.3 +18.9 64 +31 +35 душно 1015.7 1014.8 +20.5
09 21.05 З 8 40 км 5/4 600 м
[Cb cap Ac trans Ci ing]
+27.6 +20.4 65 +34 +35 очень
душно
1015.0 1014.1
12 21.05 СЗ 4 40 км 3/3 600 м
[Cb cap Ci ing]
+27.0 +20.4 67 +33 +36 очень
душно
1014.4 1013.5
15 21.05 З 2 40 км 1/1 600 м
[Cb cap Ci ing]
+24.7 +20.6 78 +31 +31 очень
душно
1014.9 1014.0
00 22.05 штиль 0 35 км 1/1 600 м
[Cu Sc]
+19.4 +19.2 99 +22 +22 комфорт 1015.8 1014.9
03 22.05 штиль 0 40 км 1/1 600 м
[Cu Sc]
+18.9 +18.4 97 +20 +20 1016.1 1015.2
06 22.05 В 2 н/о н/о +25.9 +19.3 67 +31 +31 очень
душно
1015.9 1015.0 +18.6 +29.5
09 22.05 ЮЗ 4 40 км 3/3 600 м
[Cu Sc]
+27.5 +20.6 66 +34 +39 очень
душно
1016.5 1015.6
12 22.05 Ю 6 40 км 1/1 600 м
[Cu Sc]
+27.4 +10.1 34 +28 +30 жарко 1015.0 1014.1
15 22.05 Ю 6 40 км 1/1 600 м
[Cu Sc]
+25.0 +20.9 78 +31 +31 очень
душно
1015.4 1014.5
00 23.05 Ю 1 35 км 1/1 600 м
[Cu Sc]
+19.4 +18.6 95 +23 +23 комфорт 1016.2 1015.3
03 23.05 Ю 2 40 км 1/1 600 м
[Cu Sc]
+21.2 +19.3 89 +26 +26 душно 1016.6 1015.7
06 23.05 ЮВ 4 40 км 4/4 600 м
[Cu Sc]
+23.6 +19.1 76 +28 +30 душно 1018.4 1017.5 +19.4
09 23.05 ЮВ 3 40 км 4/4 600 м
[Cu med, cong]
+27.9 +18.3 56 +33 +38 очень
душно
1017.4 1016.5
12 23.05 Ю 10 40 км 3/3 600 м
[Cu med, cong]
+26.9 +21.1 71 +34 +34 очень
душно
1015.6 1014.7
15 23.05 Ю 8 40 км 1/1 600 м
[Cu Sc]
+24.8 +20.3 76 +31 +31 очень
душно
1016.3 1015.4
00 24.05 Ю 4 35 км 1/1 600 м
[Cu Sc]
+20.8 +17.2 80 +25 +25 комфорт 1018.6 1017.7
03 24.05 ЮВ 3 40 км 1/1 600 м
[Cu Sc]
+20.6 +17.7 83 +25 +25 комфорт 1018.8 1017.9
06 24.05 ЮВ 5 40 км 1/1 600 м
[Cu Sc]
+23.2 +17.4 70 +29 +31 душно 1020.2 1019.3 +19.4
09 24.05 ЮВ 3 40 км 3/3 600 м
[Cu Sc]
+28.1 +27.0 94 +44 +51 опасность
перегрева
1018.8 1017.9
12 24.05 ЮВ 5 40 км 3/3 600 м
[Cu Sc]
+29.7 +15.2 41 +32 +34 душно 1016.7 1015.8
15 24.05 Ю 4 40 км 1/1 600 м
[Cu Sc]
+27.0 +13.6 44 +29 +29 жарко 1017.3 1016.4
03 25.05 В 3 40 км ясно +19.7 +15.2 75 +22 +22 комфорт 1018.3 1017.4
06 25.05 ЮВ 6 40 км ясно +22.8 +15.9 65 +27 +29 душно 1019.5 1018.6 +19.1
09 25.05 Ю 7 40 км ясно +29.0 +16.0 45 +32 +35 душно 1018.2 1017.3
12 25.05 ЮЗ 8 40 км 1/1 600 м
[Cu Sc]
+27.6 +20.2 64 +34 +35 очень
душно
1016.2 1015.3
15 25.05 ЮЗ 5 40 км ясно +26.8 +19.6 65 +33 +33 очень
душно
1016.4 1015.5
00 26.05 штиль 0 35 км ясно +18.4 +15.4 83 +19 +19 1016.5 1015.6
03 26.05 штиль 0 40 км ясно +18.0 +14.2 78 +18 +18 1016.9 1016.0
06 26.05 ЮВ 4 40 км ясно +22.6 +14.1 59 +26 +29 жарко 1017.8 1016.9 +17.7
09 26.05 ЮВ 6 40 км ясно +27.7 +11.7 37 +29 +33 жарко 1016.8 1015.9
12 26.05 Ю 2 40 км ясно +30.0 +10.6 30 +30 +35 жарко 1014.6 1013.7
15 26.05 Ю 1 40 км ясно +26.2 +9.7 35 +27 +27 жарко 1014.8 1013.9
00 27.05 В 7 35 км 1/1 600 м
[Cu Sc]
+18.2 +12.9 71 +18 +18 1015.0 1014.1
03 27.05 В 6 40 км 1/1 600 м
[Cu Sc]
+18.5 +12.6 68 +18 +18 1015.3 1014.4
06 27.05 В 5 40 км 1/1 600 м
[Cu Sc]
+22.6 +13.8 58 +26 +28 жарко 1017.2 1016.3 +18.1

 

Местоположение метеостанции Тулиара (Мадагаскар): широта -23.38 долгота 43.73 высота над уровнем моря 8 м.

В архиве по умолчанию представлена погода в Тулиаре за последнюю неделю. Архивные данные за месяц целиком и за предыдущие месяцы, начиная с января 2011 года, Вы можете получить, выбрав интересующий диапазон дат из раскрывающегося списка и нажав кнопку "Ввод!".


*Определитесь, кто Вы:
робот инопланетянин человек

Внимание! Время в таблицах - всемирное. Для получения местного времени необходимо прибавить поправку, которая равна 3 ч.

Смотрите также архив погоды в соседних городах и на ближайших метеорологических станциях:

Погода в Моромбе (Мадагаскар) (185 км)
Погода в Раноайре (Мадагаскар) (295 км)
Погода в Мурундаве (Мадагаскар) (350 км)
Погода на Острове Европа (Реюньон) (372 км)
Погода в Толанаро (Мадагаскар) (375 км)
Погода в Фианаранцуа (Мадагаскар) (408 км)
Погода в Фарафангане (Мадагаскар) (424 км)
Погода в Манандзари (Мадагаскар) (516 км)
Погода в Анцирабе (Мадагаскар) (526 км)
Погода в Мэнтирано (Мадагаскар) (594 км)

Пояснения к столбцам:

Ветер - указаны скорость ветра в м/с - средняя за 10 мин, порывы в срок и между сроками (в фигурных скобках) и направление, откуда дует ветер: С - северный, СВ - северо-восточный, В - восточный, ЮВ - юго-восточный, Ю - южный, ЮЗ - юго-западный, З - западный, СЗ - северо-западный.
Видимость - горизонтальная дальность видимости в метрах или километрах. При видимости от 1 до 10 км при отсутствии осадков обычно наблюдается дымка, при ухудшении видимости до 1 км и менее - туман. В сухую погоду видимость может ухудшаться дымом, пылью или мглою.
Явления - указаны атмосферные явления, наблюдавшиеся в срок или в последний час перед сроком; фигурными скобками обозначены явления, наблюдавшиеся между сроками (за 1-3 часа до срока); квадратными скобками обозначены град или гололедные отложения с указанием их диаметра в мм.
Облачность - указаны через наклонную черту общая и нижняя облачность в баллах и высота нижней границы облаков в метрах; квадратными скобками обозначены формы облаков: Ci - перистые, Cs - перисто-слоистые, Cc - перисто-кучевые, Ac - высококучевые, As - высокослоистые, Sc - слоисто-кучевые, Ns - слоисто-дождевые, Cu - кучевые, Cb - кучево-дождевые. Подробнее классификацию облаков см. в Атласе облаков (PDF).
T - Температура воздуха - температура, измеренная на высоте 2 м над землей.
Td - Температура точки росы - температура, при понижении до которой содержащийся в воздухе водяной пар достигнет насыщения.
f - Относительная влажность воздуха - влажноcть воздуха, измеренная на высоте 2 м над землей.
Te - Эффективная температура - температура, которую ощущает одетый по сезону человек в тени. Характеристика душности погоды. При расчете учитывается влияние влажности воздуха и скорости ветра на теплоощущения человека.
Tes - Эффективная температура на солнце - температура, которую ощущает человек, с поправкой на солнечный нагрев. Характеристика знойности погоды. Зависит от высоты солнца над горизонтом, облачности и скорости ветра. Ночью, в пасмурную погоду, а также при ветре 12 м/с и более поправка равна нулю.
P - Атмосферное давление - приведенное к уровню моря атмосферное давление.
Po - Атмосферное давление - измеренное на уровне метеостанции атмосферное давление.
Tmin - Минимальная температура - минимум температуры воздуха на высоте 2 м над землей.
Tmax - Максимальная температура - максимум температуры воздуха на высоте 2 м над землей.
R - Количество осадков - Количество выпавших осадков за период времени, мм. При наведении курсора мыши на число - период времени, за который выпало указанное количество осадков.
R24 - Количество осадков - Количество выпавших осадков за 24 часа, мм.
S - Снежный покров - Высота снежного покрова, см. При наведении курсора мыши на число - состояние снежного покрова и степень покрытия местности в баллах.